Tracking 19431 objects as of 18-Dec-2018
HD Live streaming from Space Station
objects crossing your sky now

QUAKESAT

Track QUAKESAT now!
10-day predictions
QUAKESAT is classified as:


NORAD ID: 27845
Int'l Code: 2003-031F
Perigee: 819.2 km
Apogee: 831.2 km
Inclination: 98.7 °
Period: 101.3 minutes
Semi major axis: 7196 km
RCS: 0.2303 m2 (medium)
Launch date: June 30, 2003
Source: United States (US)
Launch site: PLESETSK MISSILE AND SPACE COMPLEX (PKMTR)

Uplink (MHz):
Downlink (MHz): 436.682
Beacon (MHz): 436.682
Mode: 9600bps FSK
Call sign: KD7OVB
Status: Inactive


Nanosatellite; research on early warning for earthquakes.
aabbcc
Your satellite tracking list
Your tracking list is empty




NASA's NSSDC Master Catalog

Two Line Element Set (TLE):
1 27845U 03031F   18352.51985407  .00000078  00000-0  55001-4 0  9991
2 27845  98.6873 359.7379 0008357 215.7195 144.3425 14.22162401802247
Source of the keplerian elements: AFSPC